Location: Finkenwalde
(53.3770°N, 14.6418°E)
Time: 09:59:09
(UTC+00:00)

Meteor PRIRODA - Pass Details

Date: 05 February 2023
Orbit: 475 x 489 km, 97.6° (Epoch: 19 March)

Event Time Altitude Azimuth Distance (km) Brightness Sun altitude
Rises 16:53:18 0° 177° (S) 2,517 7.3 -9.4°
Reaches altitude 10° 16:55:23 10° 182° (S) 1,644 6.5 -9.7°
Maximum altitude 16:58:50 51° 259° (W) 612 4.6 -10.2°
Drops below altitude 10° 17:02:19 10° 337° (NNW) 1,662 6.4 -10.7°
Sets 17:04:26 0° 343° (NNW) 2,549 7.3 -11.1°
